Content
SEND FEEDBACK

Daily
Averages
Monthly
Summary
United States of America

ANN ARBOR, MICHIGAN


Home > North America > United States > Michigan
Elevation: 759 feet     Latitude: 42 17N     Longitude: 083 43W

WEATHER
 
SELECT A DAY
Number of Records: 203,899;   Date Range: 1/1/95 - 8/28/14
 
SHARE

PRINT THIS DATA

[ ← Previous Day ]
WEATHER ALMANAC - MARCH 28, 2013
[ Next Day → ]
[ °C ]   °F
Weather ElementAverageHighLow
Temperature41 °F53.1 °F (2:53 pm)30 °F (7:53 am)
Dewpoint23.2 °F26.1 °F (9:53 pm)21 °F (1:53 am)
Humidity51.6 %75 % (7:53 am)31 % (2:53 pm)
Barometer30.25 in30.28 in (11:53 pm)30.22 in (3:53 am)
Wind Speed9.4 mph15 mph (1:53 pm)
Wind Gust20.7 mph (2:53 pm)
Weather ElementAverage
Visibility10 mi
Wind DirectionWNW (293.5 °)

Weather ElementTotal
Precipitation---
Heating Degree Days23.5 (Base 65)
Averaged from 23 records on March 28, 2013
WEATHER CONDITIONS BREAKOUT
WIND DIRECTION BREAKOUT
WEATHER BY HOUR - MARCH 28, 2013
[ °C ]   °F
Local TimeTemperatureDewpointHumidityBarometerVisibilityWind DirectionWind SpeedGust SpeedPrecipitationEventsConditions
1:53 AM33.1 °F21.0 °F61 %30.23 in10.0 miWNW (300°)11.5 mphScattered Clouds
2:53 AM32.0 °F21.0 °F64 %30.23 in10.0 miWNW (300°)10.4 mphClear
3:53 AM32.0 °F21.0 °F64 %30.22 in10.0 miWNW (290°)8.1 mphMostly Cloudy
4:53 AM30.9 °F21.0 °F67 %30.22 in10.0 miWNW (300°)9.2 mphClear
5:53 AM30.9 °F21.9 °F69 %30.23 in10.0 miWNW (300°)6.9 mphClear
6:53 AM30.9 °F21.9 °F69 %30.24 in10.0 miNW (310°)9.2 mphClear
7:53 AM30.0 °F23.0 °F75 %30.25 in10.0 miWNW (300°)4.6 mphClear
8:53 AM32.0 °F24.1 °F73 %30.27 in10.0 miWNW (300°)5.8 mphClear
9:53 AM36.0 °F25.0 °F64 %30.27 in10.0 miNW (310°)6.9 mphMostly Cloudy
10:53 AM42.1 °F24.1 °F49 %30.27 in10.0 miNW (320°)13.8 mphClear
11:53 AM45.0 °F24.1 °F44 %30.27 in10.0 miNNW (330°)13.8 mphClear
12:53 PM48.9 °F25.0 °F39 %30.26 in10.0 miNorth (350°)11.5 mphPartly Cloudy
1:53 PM51.1 °F23.0 °F33 %30.26 in10.0 miWNW (290°)15.0 mph19.6 mphScattered Clouds
2:53 PM53.1 °F23.0 °F31 %30.24 in10.0 miNorth (350°)13.8 mph20.7 mphMostly Cloudy
3:53 PM51.1 °F23.0 °F33 %30.24 in10.0 miNW (320°)9.2 mph19.6 mphMostly Cloudy
4:53 PM52.0 °F24.1 °F34 %30.23 in10.0 miWNW (290°)11.5 mphMostly Cloudy
5:53 PM52.0 °F24.1 °F34 %30.23 in10.0 miWest (280°)15.0 mphOvercast
6:53 PM48.9 °F23.0 °F36 %30.24 in10.0 miNW (310°)9.2 mphOvercast
7:53 PM48.0 °F23.0 °F37 %30.25 in10.0 miNW (310°)6.9 mphOvercast
8:53 PM46.0 °F24.1 °F42 %30.25 in10.0 miCalmOvercast
9:53 PM37.0 °F26.1 °F65 %30.27 in10.0 miWest (270°)5.8 mphOvercast
10:53 PM42.1 °F24.1 °F49 %30.27 in10.0 miNW (310°)9.2 mphOvercast
11:53 PM39.0 °F24.1 °F55 %30.28 in10.0 miNW (310°)8.1 mphClear
Hourly data recorded from KARB, located miles away from Ann Arbor, Michigan







STORIES FROM OUR PARTNERS